Hourly Weather Bolshoe Tresno

Today, 24 July, Saturday

Time Temperature Precipitation Wind Pressure Humidity
00:00 +14°C° 0 mm 1 mps 754 mmHg 69%
01:00 +13°C° 0 mm 1 mps 755 mmHg 70%
02:00 +12°C° 0 mm 1 mps 755 mmHg 73%
03:00 +13°C° 0 mm 1 mps 755 mmHg 73%
04:00 +13°C° 0 mm 1 mps 755 mmHg 73%
05:00 +13°C° 0 mm 1 mps 755 mmHg 73%
06:00 +15°C° 0 mm 1 mps 755 mmHg 69%
07:00 +16°C° 0 mm 1 mps 756 mmHg 65%
08:00 +18°C° 0 mm 1 mps 756 mmHg 60%
09:00 +20°C° 0 mm 1 mps 756 mmHg 53%
10:00 +21°C° 0 mm 1 mps 756 mmHg 47%
11:00 +23°C° 0 mm 2 mps 756 mmHg 40%
12:00 +23°C° 0 mm 2 mps 756 mmHg 44%
13:00 +21°C° 0 mm 2 mps 756 mmHg 48%
14:00 +20°C° 0 mm 2 mps 756 mmHg 52%
15:00 +21°C° 0 mm 2 mps 756 mmHg 50%
16:00 +21°C° 0 mm 2 mps 757 mmHg 48%
17:00 +23°C° 0 mm 1 mps 757 mmHg 45%
18:00 +21°C° 0 mm 1 mps 757 mmHg 53%
19:00 +20°C° 0 mm 1 mps 757 mmHg 60%
20:00 +18°C° 0 mm 1 mps 757 mmHg 67%
21:00 +16°C° 0 mm 1 mps 757 mmHg 69%
22:00 +15°C° 0 mm 1 mps 757 mmHg 71%
23:00 +14°C° 0 mm 1 mps 758 mmHg 72%

Tomorrow, 25 July, Sunday

Time Temperature Precipitation Wind Pressure Humidity
00:00 +14°C° 0 mm 1 mps 758 mmHg 73%
01:00 +14°C° 0 mm 1 mps 758 mmHg 74%
02:00 +12°C° 0 mm 0 mps 758 mmHg 75%
03:00 +13°C° 0 mm 0 mps 758 mmHg 75%
04:00 +13°C° 0 mm 0 mps 759 mmHg 74%
05:00 +13°C° 0 mm 0 mps 759 mmHg 74%
06:00 +18°C° 0 mm 1 mps 759 mmHg 67%
07:00 +20°C° 0 mm 1 mps 759 mmHg 60%
08:00 +22°C° 0 mm 1 mps 759 mmHg 53%
09:00 +23°C° 0 mm 1 mps 759 mmHg 48%
10:00 +25°C° 0 mm 1 mps 759 mmHg 44%
11:00 +26°C° 0 mm 1 mps 759 mmHg 39%
12:00 +27°C° 0 mm 1 mps 759 mmHg 37%
13:00 +27°C° 0 mm 1 mps 759 mmHg 36%
14:00 +28°C° 0 mm 1 mps 759 mmHg 34%
15:00 +28°C° 0 mm 1 mps 759 mmHg 36%
16:00 +27°C° 0 mm 1 mps 759 mmHg 37%
17:00 +27°C° 0 mm 1 mps 759 mmHg 39%
18:00 +25°C° 0 mm 1 mps 759 mmHg 48%
19:00 +23°C° 0 mm 1 mps 759 mmHg 57%
20:00 +21°C° 0 mm 1 mps 759 mmHg 66%
21:00 +19°C° 0 mm 2 mps 759 mmHg 67%
22:00 +19°C° 0 mm 2 mps 760 mmHg 67%
23:00 +18°C° 0 mm 2 mps 760 mmHg 68%

Day after tomorrow, 26 July, Monday

Time Temperature Precipitation Wind Pressure Humidity
00:00 +19°C° 0 mm 1 mps 760 mmHg 68%
01:00 +18°C° 0 mm 1 mps 760 mmHg 68%
02:00 +18°C° 0 mm 1 mps 760 mmHg 69%
03:00 +18°C° 0 mm 1 mps 760 mmHg 70%
04:00 +16°C° 0 mm 0 mps 760 mmHg 72%
05:00 +16°C° 0 mm 0 mps 760 mmHg 73%
06:00 +18°C° 0 mm 0 mps 761 mmHg 67%
07:00 +20°C° 0 mm 0 mps 761 mmHg 60%
08:00 +22°C° 0 mm 0 mps 761 mmHg 54%
09:00 +24°C° 0 mm 0 mps 761 mmHg 49%
10:00 +25°C° 0 mm 0 mps 761 mmHg 43%
11:00 +29°C° 0 mm 1 mps 761 mmHg 38%
12:00 +30°C° 0 mm 1 mps 761 mmHg 36%
13:00 +30°C° 0 mm 1 mps 760 mmHg 35%
14:00 +31°C° 0 mm 1 mps 760 mmHg 33%
15:00 +30°C° 0 mm 1 mps 760 mmHg 35%
16:00 +30°C° 0 mm 1 mps 760 mmHg 37%
17:00 +30°C° 0 mm 1 mps 760 mmHg 39%
18:00 +27°C° 0 mm 1 mps 760 mmHg 47%
19:00 +25°C° 0 mm 1 mps 760 mmHg 55%
20:00 +23°C° 0 mm 1 mps 760 mmHg 63%
21:00 +23°C° 0 mm 1 mps 760 mmHg 63%
22:00 +22°C° 0 mm 1 mps 760 mmHg 63%
23:00 +22°C° 0 mm 1 mps 760 mmHg 63%

27 July, Tuesday

Time Temperature Precipitation Wind Pressure Humidity
00:00 +21°C° 0 mm 1 mps 760 mmHg 63%
01:00 +21°C° 0 mm 1 mps 760 mmHg 63%
02:00 +21°C° 0 mm 1 mps 760 mmHg 63%
03:00 +21°C° 0 mm 1 mps 760 mmHg 65%
04:00 +21°C° 0 mm 1 mps 760 mmHg 66%
05:00 +21°C° 0 mm 1 mps 760 mmHg 68%
06:00 +22°C° 0 mm 1 mps 760 mmHg 64%
07:00 +24°C° 0 mm 1 mps 760 mmHg 60%
08:00 +25°C° 0 mm 1 mps 760 mmHg 56%
09:00 +27°C° 0 mm 1 mps 760 mmHg 50%
10:00 +29°C° 0 mm 1 mps 760 mmHg 44%
11:00 +30°C° 0 mm 1 mps 760 mmHg 38%
12:00 +31°C° 0 mm 2 mps 759 mmHg 37%
13:00 +31°C° 0 mm 2 mps 759 mmHg 36%
14:00 +31°C° 0 mm 2 mps 759 mmHg 34%
15:00 +30°C° 0 mm 2 mps 758 mmHg 39%
16:00 +29°C° 0 mm 2 mps 758 mmHg 44%
17:00 +28°C° 0 mm 2 mps 758 mmHg 49%
18:00 +27°C° 0 mm 2 mps 758 mmHg 53%
19:00 +25°C° 0 mm 2 mps 758 mmHg 58%
20:00 +24°C° 0 mm 2 mps 757 mmHg 62%
21:00 +23°C° 0 mm 2 mps 757 mmHg 65%
22:00 +21°C° 0 mm 2 mps 757 mmHg 67%
23:00 +20°C° 0 mm 2 mps 757 mmHg 70%

28 July, Wednesday

Time Temperature Precipitation Wind Pressure Humidity
00:00 +20°C° 0 mm 2 mps 757 mmHg 70%
01:00 +20°C° 0 mm 2 mps 757 mmHg 71%
02:00 +20°C° 0 mm 2 mps 756 mmHg 71%
03:00 +20°C° 0 mm 2 mps 756 mmHg 72%
04:00 +20°C° 0 mm 2 mps 756 mmHg 72%
05:00 +21°C° 0 mm 1 mps 756 mmHg 73%
06:00 +21°C° 0 mm 2 mps 755 mmHg 69%
07:00 +23°C° 0 mm 2 mps 755 mmHg 65%
08:00 +24°C° 0 mm 2 mps 755 mmHg 61%
09:00 +24°C° 0.1 mm 2 mps 755 mmHg 65%
10:00 +24°C° 0.1 mm 2 mps 755 mmHg 68%
11:00 +24°C° 0.1 mm 2 mps 755 mmHg 72%
12:00 +24°C° 0.3 mm 2 mps 754 mmHg 74%
13:00 +24°C° 0.3 mm 3 mps 754 mmHg 76%
14:00 +24°C° 0.3 mm 3 mps 754 mmHg 78%
15:00 +24°C° 0.3 mm 3 mps 754 mmHg 79%
16:00 +22°C° 0.3 mm 3 mps 754 mmHg 80%
17:00 +22°C° 0.3 mm 3 mps 754 mmHg 81%
18:00 +21°C° 0.2 mm 3 mps 754 mmHg 86%
19:00 +20°C° 0.2 mm 2 mps 753 mmHg 90%
20:00 +20°C° 0.2 mm 1 mps 753 mmHg 94%
21:00 +19°C° 0 mm 1 mps 753 mmHg 95%
22:00 +19°C° 0 mm 1 mps 753 mmHg 96%
23:00 +19°C° 0 mm 1 mps 752 mmHg 97%

29 July, Thursday

Time Temperature Precipitation Wind Pressure Humidity
00:00 +19°C° 0 mm 1 mps 752 mmHg 97%
01:00 +18°C° 0 mm 1 mps 752 mmHg 97%
02:00 +18°C° 0 mm 1 mps 752 mmHg 98%
03:00 +18°C° 0 mm 1 mps 752 mmHg 97%
04:00 +18°C° 0 mm 1 mps 752 mmHg 97%
05:00 +18°C° 0 mm 1 mps 752 mmHg 97%
06:00 +20°C° 0 mm 1 mps 752 mmHg 90%
07:00 +22°C° 0 mm 1 mps 752 mmHg 84%
08:00 +23°C° 0 mm 1 mps 752 mmHg 77%
09:00 +25°C° 0 mm 1 mps 752 mmHg 70%
10:00 +26°C° 0 mm 1 mps 752 mmHg 62%
11:00 +28°C° 0 mm 1 mps 751 mmHg 55%
12:00 +28°C° 0.2 mm 1 mps 751 mmHg 53%
13:00 +29°C° 0.2 mm 2 mps 751 mmHg 51%
14:00 +29°C° 0.2 mm 2 mps 751 mmHg 49%
15:00 +27°C° 0.2 mm 2 mps 751 mmHg 56%
16:00 +26°C° 0.2 mm 2 mps 751 mmHg 63%
17:00 +24°C° 0.2 mm 2 mps 751 mmHg 70%
18:00 +23°C° 0 mm 2 mps 751 mmHg 73%
19:00 +21°C° 0 mm 2 mps 751 mmHg 76%
20:00 +21°C° 0 mm 1 mps 751 mmHg 79%
21:00 +19°C° 0 mm 2 mps 751 mmHg 82%
22:00 +18°C° 0 mm 2 mps 752 mmHg 85%
23:00 +17°C° 0 mm 2 mps 752 mmHg 88%
Show more

We Need Your Consent

Meteoprog and our Service Providers may store and access personal data such as cookies, device identifiers or other similar technologies on your device and process such data to personalise content and ads, as well as provide social media features and to analyse the traffic.

  • Store and/or access information on your device

    Cookies, device identifiers or other information can be stored or accessed on your device for the purposes indicated above.

  • Personalised ads and content, ad and content measurement, audience insights, and products development

    Ads and content can be personalised based on a profile. More data can be added to better personalise ads and content. Ad and content performance can be measured. Insights about the audience who saw the ads and content can be derived. Such data can be used to develop or improve user’s experience, systems and software.

By clicking ‘I Agree’ you will allow the use of indicated cookies, device identifiers, web beacons or other similar technologies. Your settings can be changed in the browser on your device.

For certain purposes, legitimate interests may be relied on, rather than consent. You can read more about this in our Privacy and Cookie Policy.